Location: Akho
(42.3047°N, 44.1844°E)
Time: 04:39:23
(UTC+00:00)

SL-16 R/B - Pass Details

Date: 07 June 2020
Orbit: 842 x 846 km, 71.0° (Epoch: 05 July)

Event Time Altitude Azimuth Distance (km) Brightness Sun altitude
Exits shadow 00:22:51 - 255° (WSW) 2,552 4.2 -10.1°
Reaches altitude 10° 00:23:10 10° 257° (WSW) 2,462 4.1 -10.1°
Maximum altitude 00:27:35 23° 309° (NW) 1,724 3.8 -9.5°
Drops below altitude 10° 00:32:03 10° 0° (N) 2,475 5.3 -8.9°
Sets 00:35:02 0° 15° (NNE) 3,414 6.4 -8.5°
